Flag for India Weather past 2 weeks in Kapurthala, Punjab, India

Now
77 °F

Fog.


Feels Like: 78 °F
Forecast: 72 / 96 °F
Wind: No wind

Location: Amritsar Airport

Current Time: Sep 22, 2014 at 2:26:30 AM

Latest Report: Sep 22, 2014 at 1:30 AM


Visibility: 2 mi

Pressure: 29.71 "Hg

Humidity: 94%

Dew point: 75 °F

Location of KapurthalaLocation

Historic Weather in Kapurthala — Graph

°F

Kapurthala temperature yesterday

Maximum temperature yesterday: 91 °F (at 1:30 PM)
Minimum temperature yesterday: 73 °F (at 12:30 AM)
Average temperature yesterday: 81 °F

Past Weeks' High & Low Weather Summary

 TemperatureHumidityPressure
High95 °F (Sep 18, 3:00 PM)100% (Sep 7, 12:30 AM)29.80 "Hg (Sep 7, 12:30 AM)
Low72 °F (Sep 17, 6:00 AM)46% (Sep 21, 1:30 PM)29.59 "Hg (Sep 9, 4:30 PM)
Average82 °F84%29.68 "Hg
* Reported Sep 7 12:30 AM — Sep 22 1:00 AM, Kapurthala, Weather by CustomWeather, © 2014

Note: Actual official high and low records may vary slightly from our data, if they occured in-between our weather recording intervals... More about our weather records

Advertising

Kapurthala weather history for previous 24 hours

 ConditionsComfort  
Time TempWeatherWind HumidityBarometerVisibility
1:00 AM
Sep 22
77 °FFog.No wind94%29.71 "Hg2 mi
12:30 AM77 °FFog.No wind94%29.71 "Hg2 mi
12:00 AM79 °FFog.No wind89%29.71 "Hg2 mi
11:30 PM
Sep 21
79 °FFog.No wind89%29.71 "Hg2 mi
11:00 PM79 °FFog.No wind89%29.71 "Hg2 mi
10:30 PM79 °FFog.No wind94%29.68 "Hg2 mi
10:00 PM79 °FFog.No wind94%29.68 "Hg2 mi
9:30 PM79 °FFog.No wind94%29.68 "Hg2 mi
8:30 PM81 °FFog.No wind89%29.68 "Hg2 mi
7:30 PM82 °FFog.No wind79%29.65 "Hg2 mi
7:00 PM84 °FHaze.No wind74%29.65 "Hg3 mi
5:30 PM88 °FClear.No wind62%29.65 "Hg4 mi
5:00 PM90 °FClear.1 mph59%29.65 "Hg4 mi
4:30 PM90 °FClear.5 mph55%29.65 "Hg4 mi
4:00 PM90 °FClear.5 mph52%29.65 "Hg4 mi
3:30 PM90 °FClear.5 mph55%29.65 "Hg4 mi
2:30 PM91 °FClear.1 mph49%29.65 "Hg4 mi
2:00 PM91 °FClear.No wind49%29.65 "Hg4 mi
1:30 PM91 °FClear.No wind46%29.68 "Hg4 mi
1:00 PM88 °FHaze.No wind52%29.68 "Hg4 mi
12:30 PM90 °FHaze.No wind49%29.68 "Hg3 mi
12:00 PM88 °FHaze.No wind52%29.71 "Hg3 mi
11:30 AM86 °FScattered clouds.1 mph59%29.71 "Hg3 mi
11:00 AM86 °FScattered clouds.5 mph59%29.71 "Hg3 mi
10:30 AM84 °FScattered clouds.2 mph62%29.71 "Hg3 mi
10:00 AM84 °FScattered clouds.3 mph66%29.71 "Hg3 mi
9:30 AM81 °FScattered clouds.5 mph74%29.71 "Hg3 mi
9:00 AM77 °FScattered clouds.7 mph79%29.71 "Hg3 mi
8:30 AM77 °FFog.7 mph79%29.74 "Hg2 mi
8:00 AM75 °FFog.10 mph83%29.77 "Hg2 mi
7:30 AM73 °FFog.9 mph94%29.77 "Hg2 mi
6:30 AM73 °FFog.No wind94%29.71 "Hg1 mi
6:00 AM73 °FFog.No wind94%29.68 "Hg1 mi
5:30 AM73 °FFog.No wind94%29.68 "Hg1 mi
5:00 AM73 °FFog.No wind94%29.68 "Hg1 mi
4:30 AM73 °FFog.No wind94%29.65 "Hg1 mi
3:30 AM73 °FFog.No wind94%29.65 "Hg1 mi
3:00 AM73 °FFog.No wind94%29.65 "Hg1 mi
Weather by CustomWeather, © 2014

See weather overviewHow to use our weather pages